Regional Weather Roundup
Issued by NWS State College, PA

Home | Current Version | Previous Version | Text Only | Print | Product List | Glossary Off
Versions: 1 2 3 4 5 6 7 8 9 10 11 12 13 14 15 16 17 18 19 20 21 22 23 24 25 26 27 28 29 30 31 32 33 34 35 36 37 38 39 40 41 42 43 44 45 46 47 48 49 50

000
ASUS41 KCTP 242003
RWRCTP

REGIONAL WEATHER ROUNDUP
NATIONAL WEATHER SERVICE STATE COLLEGE PA
400 PM EDT WED MAY 24 2017

Note: "fair" indicates few or no clouds below 12,000 feet with no
significant weather and/or obstructions to visibility.

* = STATION THAT DOES NOT REPORT PRECIPITATION /E.G. RAIN...SNOW...ETC/
    THUNDER OR FOG.

PAZ002>004-007>009-013>016-020>023-029>032-242100-
WESTERN PENNSYLVANIA

CITY           SKY/WX    TMP DP  RH WIND       PRES   REMARKS
ERIE           CLOUDY    71  49  45 SE7       29.58F
MEADVILLE      CLOUDY    67  52  58 VRB6      29.60F
FRANKLIN*      CLOUDY    64  52  63 SE12G18   29.62F
NEW CASTLE     CLOUDY    62  57  83 SE9G21    29.60F
BEAVER COUNTY  LGT RAIN  61  57  88 SE10      29.59F
BUTLER*        CLOUDY    64  54  68 SE14G24   29.61F
PITTSBURGH INT CLOUDY    65  57  75 SE15      29.58F
PITTSBURGH     CLOUDY    65  52  62 E17       29.59F
INDIANA*       CLOUDY    64  52  63 SE16G24   29.68F
LATROBE        CLOUDY    64  54  68 E12G23    29.65R
WASHINGTON CO* CLOUDY    64  55  72 E8        29.59F
$$

PAZ004>006-010>012-017>019-024>028-033>037-041-042-045-046-049>053-242100-
CENTRAL PENNSYLVANIA

CITY           SKY/WX    TMP DP  RH WIND       PRES   REMARKS
BRADFORD       CLOUDY    67  47  48 SE10G20   29.67F
DUBOIS         CLOUDY    66  46  48 SE9G24    29.65S
CLEARFIELD     CLOUDY    67  48  50 SE10G18   29.68S
JOHNSTOWN      CLOUDY    59  51  75 SE10G21   29.68S
ALTOONA        CLOUDY    64  52  64 S14       29.70S
STATE COLLEGE  CLOUDY    66  50  55 SE9G20    29.70F
WILLIAMSPORT   MOSUNNY   74  48  39 SE14G22   29.68F
SELINSGROVE    CLOUDY    72  50  45 SE14      29.71F
FT INDIANTOWN  PTSUNNY   70  52  52 S7        29.72F
CAPITAL CITY   CLOUDY    71  51  49 SE10      29.72S
HARRISBURG     CLOUDY    71  54  54 SE12      29.71F
YORK           CLOUDY    66  53  63 SE9       29.74R
$$

PAZ038>040-043-044-047-048-054-055-060>062-067>071-242100-
EASTERN PENNSYLVANIA

CITY           SKY/WX    TMP DP  RH WIND       PRES   REMARKS
SCRANTON       PTSUNNY   72  48  42 SE9       29.72R
MOUNT POCONO   PTSUNNY   66  46  48 SE15G23   29.76R
ALLENTOWN      CLOUDY    71  51  49 E9        29.74F
QUAKERTOWN*    CLOUDY    68  54  60 E6        29.76S
READING        PTSUNNY   71  53  52 SE12      29.71F
LANCASTER      CLOUDY    71  54  54 SE9       29.72F
COATESVILLE    CLOUDY    68  52  56 VRB6G20   29.75F
POTTSTOWN      CLOUDY    69  52  54 VRB6      29.75F
BLUE BELL      CLOUDY    68  52  56 E7        29.76S
DOYLESTOWN     CLOUDY    68  54  60 VRB6      29.75S
WILLOW GROVE   NOT AVBL
NORTH PHILA    CLOUDY    69  50  50 SE12G22   29.77S
PHILADELPHIA   CLOUDY    70  51  51 SE10      29.75F
$$




USA.gov is the U.S. government's official web portal to all federal, state and local government web resources and services.